Regional Weather Roundup
Issued by NWS Albany, NY

Home | Current Version | Previous Version | Graphics & Text | Print | Product List | Glossary Off
Versions: 1 2 3 4 5 6 7 8 9 10 11 12 13 14 15 16 17 18 19 20 21 22 23 24 25 26 27 28 29 30 31 32 33 34 35 36 37 38 39 40 41 42 43 44 45 46 47 48

000
ASUS41 KALY 192210
RWRALY

NEW YORK STATE HOURLY WEATHER ROUNDUP
NATIONAL WEATHER SERVICE ALBANY NY
600 PM EDT FRI SEP 19 2014

NOTE: "FAIR" INDICATES FEW OR NO CLOUDS BELOW 12,000 FEET WITH NO
SIGNIFICANT WEATHER AND/OR NO OBSTRUCTIONS TO VISIBILITY.

NYZ032-033-038>043-046>054-057>066-NYZ062>081-192300-
EAST


CITY           SKY/WX    TMP DP  RH WIND       PRES   REMARKS
ALBANY         PTCLDY    60  38  43 S7        30.32F
GLENS FALLS    CLEAR     57  37  47 SW6       30.33S
POUGHKEEPSIE   CLEAR     62  42  47 SE5       30.32S
NEWBURGH       MOSUNNY   63  45  51 SE6       30.33F
MONTGOMERY       N/A     64  44  48 SE7       30.31F
WHITE PLAINS   CLEAR     60  42  51 SE5       30.34S
ISLIP          PTCLDY    60  44  55 SE12      30.34S
NEW YORK CITY  MOSUNNY   65  47  52 E12       30.33S
CENTRAL PARK   SUNNY     63  44  50 VRB7      30.36S
$$

NYZ005>009-017-018-044>046-055-056-192300-
CENTRAL


CITY           SKY/WX    TMP DP  RH WIND       PRES   REMARKS
FULTON         SUNNY     58  40  51 SE5       30.25F
SYRACUSE       MOSUNNY   61  43  51 NE7       30.25F
ROME           SUNNY     59  42  53 E9        30.29S
ELMIRA         SUNNY     66  46  48 SE7       30.23F
BINGHAMTON     SUNNY     60  42  51 S6        30.27S
MONTICELLO     SUNNY     61  43  51 S8        30.32S
$$

NYZ026>034-041>043-192300-
NORTH


CITY           SKY/WX    TMP DP  RH WIND       PRES   REMARKS
WATERTOWN      SUNNY     58  37  45 VRB3      30.27S
FORT DRUM      NOT AVBL
MASSENA        SUNNY     56  35  45 NE6       30.29R
SARANAC LAKE   CLEAR     54  28  36 S12       30.25S
PLATTSBURGH    CLEAR     54  34  46 S10       30.30S
$$

NYZ001>004-010>016-019>021-192300-
WEST


CITY           SKY/WX    TMP DP  RH WIND       PRES   REMARKS
NIAGARA FALLS  PTSUNNY   66  43  43 NE3       30.19S
BUFFALO        PTSUNNY   66  41  40 CALM      30.19S
DUNKIRK        SUNNY     62  48  60 VRB5      30.18F
JAMESTOWN      MOSUNNY   63  48  59 S6        30.19F
WELLSVILLE     SUNNY     61  45  55 S9        30.24F
ROCHESTER      PTSUNNY   61  41  47 SE9       30.22F
PENN YAN       SUNNY     61  42  49 SE5       30.24F
$$

             KEY
       WCI = WIND CHILL INDEX
       VSB = VISIBILITY
       HX  = HEAT INDEX
$$



USA.gov is the U.S. government's official web portal to all federal, state and local government web resources and services.